STARLINK-1402, 45685

Orbit data source: Space-Track

STARLINK-1402, 45685 is a payload satellite owned by SpaceX/Seattle (US) in LEO that was launched on Thu, 04 Jun 2020 UTC via an FALCON 9 launch vehicle from the Air Force Eastern Test Range (AFETR). Payload-class satellites include a variety of spacecraft equipped with specific instruments for various scientific and technological missions. These include communications satellites like Starlink; space stations such as the ISS; scientific satellites like the Hubble; Earth observation satellites from companies like Planet Labs, Umbra, and HawkEye 360; GPS; miniature CubeSats for education and research; and military/defense satellites.

Loading next visibility...
Identifier
45685, 2020-035AE
Orbit
LEO
Last TLE update
7 hours ago
Origin
Manufacturer
SpaceX/Seattle
Mission
Operational Commercial Communications
Bus & Motor
STARLINK, Unknown motor
Mass
260 kg wet, ~248 kg dry
Launch date (UTC)
2020-06-04 (5 years ago)
Launch vehicle
FALCON 9
Launch site
Air Force Eastern Test Range (AFETR)
Object type
Payload
Rocket body
Debris
Shape & HBR
Box + 1 Pan, 8.86 m
Radar Cross Section
13.562 m², Large (>1 m²)

Expand to show TLE details & history

TLE from 7 hours ago
0 STARLINK-1402
1 45685U 20035AE  25182.15285649  .00001047  00000-0  89155-4 0  9990
2 45685  53.0556 100.2287 0001507  98.4469 261.6690 15.06402699280638
Epoch: 2025-07-01T03:40Z
TLE epoch observation values (Epoch: 2025-07-01T03:40:06.8Z)
Latitude
-0.0001°
Longitude
125.74788°
Altitude
548.234 km
Speed
7.589 km/s
True Right ascension
06h 40m 54s
True Declination
0° 00' 00"
Sunlit
Object was in daylight at epoch
Visualization orbit readout
Latitude
42.28607°
Longitude
167.3697°
Altitude
550.504 km
Speed
7.592 km/s
Apparent Right ascension
09h 41m 16s
Apparent Declination
3° 15' 04"
Sunlit
Object is in daylight
Visualization observer readout
Local Sidereal Time
21:55:49
Azimuth
5.297° NNE
Elevation
-46.704°
Doppler factor
1
Orbital elements
Apogee altitude
548.518 km
Perigee altitude
546.43 km
Semi-major axis
6,925.611 km
Eccentricity
0.00015
Inclination
53.0556°
RAAN
100.2287°
Arg. of periapsis
98.4469°
True anomaly
Unknown
Mean anomaly
261.669°
Eccentric anomaly
Unknown
Mean motion
3.76579 °/min
Orbital period
95.6 mins
BSTAR
0.000089155
Loading maneuver chart data...
Loading SW <> Apogee altitude chart data...

STARLINK-1402 Visibility forecast

Observer location: undefined°, undefined°

Span
Click to sort rows by Start time (UTC) header in descending order
Start Az.
Max El. time (UTC)
Max El. Az.
Max El.
End time (UTC)
End Az.
6 mins2025-07-01 21:22:23.841Z231.112° WSW2025-07-01 21:25:23.841Z19.909° NNE44.778°2025-07-01 21:28:23.841Z49.147° ENE
4 mins2025-07-01 23:03:23.841Z303.814° NW2025-07-01 23:05:23.841Z341.604° N19.417°2025-07-01 23:07:23.841Z17.465° NNE
4 mins2025-07-02 02:25:23.841Z352.826° N2025-07-02 02:26:23.841Z12.079° NNE19.661°2025-07-02 02:29:23.841Z66.444° ENE
6 mins2025-07-02 04:04:23.841Z309.326° NW2025-07-02 04:06:23.841Z305.76° NW43.417°2025-07-02 04:10:23.841Z131.659° SE
|